EW4570 Weather Reports


Display with metric or nautical units.
time (UTC)temp
F
wind
direction
speed
MPH
gust
MPH
rain 1hr
in
rain 24hr
in
rain mn
in
humidity
%
barometer
mb
20260504044555 52 240 0.0 2.0 0.00 0.00 0.00 49 1012.8
20260504043101 52 246 0.0 1.0 0.00 0.00 0.00 49 1012.7
20260504041551 52 249 0.0 2.0 0.00 0.00 0.00 49 1012.5
20260504040110 52 249 0.0 3.0 0.00 0.00 0.00 49 1012.4
20260504034548 52 248 0.0 2.0 0.00 0.00 0.00 48 1012.5
20260504033047 52 253 0.0 1.0 0.00 0.00 0.00 48 1012.4
20260504031548 53 220 0.0 2.0 0.00 0.00 0.00 47 1012.4
20260504030046 53 248 0.0 2.0 0.00 0.00 0.00 45 1012.4
20260504024548 53 254 0.0 2.0 0.00 0.00 0.00 45 1012.3
20260504023053 52 255 0.0 1.0 0.00 0.00 0.00 47 1012.4
20260504021547 52 249 0.0 2.0 0.00 0.00 0.00 47 1012.4
20260504020046 53 282 0.0 0.0 0.00 0.00 0.00 46 1012.5
20260504014556 54 288 0.0 0.0 0.00 0.00 0.00 43 1012.3
20260504013042 55 289 0.0 0.0 0.00 0.00 0.00 42 1012.2
20260504011543 55 292 0.0 0.0 0.00 0.00 0.00 40 1012.1
20260504010049 56 292 0.0 0.0 0.00 0.00 0.00 39 1011.9
20260504004545 57 292 0.0 0.0 0.00 0.00 0.00 37 1011.7
20260504003043 58 296 0.0 0.0 0.00 0.00 0.00 35 1011.5
20260504001555 58 290 0.0 4.0 0.00 0.00 0.00 33 1011.2
20260504000040 59 241 0.0 10.0 0.00 0.00 0.00 32 1011.0
20260503234540 59 314 0.0 6.0 0.00 0.00 0.00 31 1010.8
20260503233042 60 276 0.0 6.0 0.00 0.00 0.00 31 1010.6
20260503231538 60 319 1.0 9.0 0.00 0.00 0.00 30 1010.6
20260503230038 60 314 1.0 8.0 0.00 0.00 0.00 30 1010.5
20260503224538 60 333 1.0 9.0 0.00 0.00 0.00 29 1010.3
20260503223037 60 291 0.0 14.0 0.00 0.00 0.00 29 1010.3
20260503221536 61 60 0.0 13.0 0.00 0.00 0.00 29 1010.4
20260503220035 60 299 2.0 9.0 0.00 0.00 0.00 28 1010.3
20260503214533 60 303 6.0 15.0 0.00 0.00 0.00 27 1010.4
20260503213033 60 314 1.0 11.0 0.00 0.00 0.00 29 1010.4
20260503211532 59 284 5.0 13.0 0.00 0.00 0.00 28 1010.4
20260503210031 59 239 4.0 13.0 0.00 0.00 0.00 29 1010.3
20260503204534 59 274 2.0 14.0 0.00 0.00 0.00 30 1010.3
20260503203129 60 306 4.0 14.0 0.00 0.00 0.00 30 1010.5
20260503201528 59 278 2.0 10.0 0.00 0.00 0.00 30 1010.4
20260503200026 58 339 5.0 17.0 0.00 0.00 0.00 29 1010.6
20260503194526 58 274 2.0 17.0 0.00 0.00 0.00 31 1010.6
20260503193036 58 261 3.0 15.0 0.00 0.00 0.00 32 1010.7
20260503191521 57 237 4.0 18.0 0.00 0.00 0.00 32 1011.0
20260503190018 57 319 1.0 17.0 0.00 0.00 0.00 34 1010.9
20260503184523 57 306 4.0 14.0 0.00 0.00 0.00 34 1011.0
20260503183016 56 295 5.0 16.0 0.00 0.00 0.00 34 1011.2
20260503181513 56 38 2.0 7.0 0.00 0.00 0.00 38 1011.3
20260503180017 55 330 1.0 10.0 0.00 0.00 0.00 37 1011.3
20260503174509 54 324 4.0 14.0 0.00 0.00 0.00 38 1011.6
20260503173019 54 335 2.0 15.0 0.00 0.00 0.00 39 1011.5
20260503171512 54 319 6.0 14.0 0.00 0.00 0.00 40 1011.8
20260503081518 47 360 0.0 2.0 0.00 0.01 0.00 53 1010.6
20260503071512 48 57 0.0 2.0 0.00 0.01 0.00 51 1010.5
20260503054602 50 314 0.0 2.0 0.00 0.01 0.00 45 1010.8
20260503053057 50 314 0.0 2.0 0.00 0.01 0.00 45 1010.9
20260503051555 51 344 0.0 6.0 0.00 0.01 0.00 43 1011.0
20260503050053 51 331 0.0 2.0 0.00 0.01 0.00 42 1011.2